Theta_e
327 327 326 326 326 326 325 324 322 322 322 322 322 323 323 323 322 322 324 325 325 326 326 326 327 327 327 327 327 327 327 326 326 327 327 327 327 327 326 326 326 326 325 325 325 325 325 325 325 326 326 326 325 325 325 324 324 324 324 323 322 321 321
327 326 325 324 324 323 322 320 318 317 317 317 318 318 320 320 319 320 321 322 323 325 325 325 325 325 326 325 326 327 327 327 327 327 327 326 327 327 327 327 327 326 326 326 325 324 325 325 326 325 325 325 324 324 324 324 323 324 323 322 322 322 322
327 325 322 320 318 318 317 315 316 316 316 316 314 314 315 316 317 317 319 319 320 321 323 324 324 324 325 325 325 326 326 326 327 327 327 326 327 328 327 327 327 327 326 326 325 325 325 325 325 325 325 324 323 322 323 323 323 323 323 322 322 323 323
327 325 321 317 316 316 315 315 316 317 317 317 314 312 314 316 316 317 318 317 317 317 319 321 323 324 324 325 325 325 325 325 325 326 326 326 326 327 327 327 327 327 326 326 326 325 325 325 325 325 324 323 322 321 322 323 322 322 322 322 323 323 323
327 326 322 317 315 315 315 316 317 318 318 316 315 313 316 318 318 319 319 318 318 317 317 319 322 323 323 324 323 323 323 323 323 325 326 326 326 326 326 326 327 326 326 326 326 325 325 325 325 324 323 322 321 320 321 322 322 321 321 322 323 323 323
326 323 320 317 315 314 316 316 316 317 316 315 314 315 317 319 320 320 319 318 318 317 317 318 320 321 321 321 321 322 322 322 322 324 325 325 326 326 326 326 326 326 325 325 325 325 325 325 325 324 323 321 321 320 320 321 321 321 322 322 322 323 322
325 322 319 316 315 315 317 316 315 315 314 313 314 316 317 318 319 319 318 317 317 316 316 318 318 319 319 319 320 321 321 321 321 323 324 324 325 325 325 325 326 325 325 325 325 324 324 324 324 324 322 321 320 319 319 320 320 320 321 322 322 322 322
324 324 320 315 315 316 317 317 315 315 314 314 314 315 316 317 318 318 318 318 316 314 316 318 318 318 317 317 318 319 320 321 322 323 324 324 324 324 324 325 325 325 324 325 325 324 324 324 324 323 321 321 320 318 317 318 318 318 320 321 321 320 319
325 325 320 316 316 317 317 317 315 316 316 316 316 315 316 317 318 318 318 318 315 313 315 317 317 317 317 317 318 319 320 321 322 322 323 323 323 323 324 324 325 325 324 325 325 324 324 324 323 322 319 319 320 318 318 317 316 317 319 319 317 316 313
326 326 320 317 318 318 318 318 318 318 318 318 317 316 316 317 317 318 319 317 313 312 315 317 317 317 318 319 320 321 321 322 322 322 322 322 323 323 323 324 325 324 324 325 324 324 323 323 322 321 318 317 318 319 319 318 316 316 318 316 312 309 306
327 325 320 318 319 319 320 320 320 320 318 317 317 316 315 315 314 317 319 316 311 311 314 317 317 317 317 319 320 321 321 322 322 322 322 322 322 323 323 324 324 324 324 324 323 323 322 322 321 318 316 315 316 317 319 318 316 315 314 312 308 307 306
327 324 320 320 319 318 320 321 322 321 316 314 315 314 312 311 311 315 317 314 310 310 313 316 315 314 315 317 319 320 321 321 322 322 322 322 322 322 323 323 324 324 324 323 323 322 321 321 319 317 315 314 312 313 315 316 316 313 311 309 307 307 307
326 323 320 321 320 319 319 320 320 318 312 310 312 311 308 307 308 312 314 311 308 310 313 315 314 312 311 315 318 320 321 320 321 321 322 321 322 322 323 323 324 324 324 323 322 321 319 319 318 316 315 314 313 312 312 314 314 312 310 309 307 307 307
325 322 322 322 320 318 318 318 317 312 308 307 308 307 305 305 307 309 310 308 306 308 311 313 311 309 309 313 317 319 319 319 320 321 322 322 322 322 323 323 323 323 322 321 320 319 318 318 317 317 316 316 316 315 312 312 313 310 309 309 308 307 307
324 324 324 323 320 319 318 318 315 309 306 306 306 305 305 305 306 307 307 307 305 305 307 307 307 307 310 313 315 316 317 318 318 320 321 321 322 322 322 321 320 320 320 319 318 318 317 317 317 317 317 317 317 317 316 314 312 310 308 308 307 306 307
324 325 324 321 318 318 319 319 315 309 305 306 305 304 305 304 305 307 306 306 305 305 305 305 306 307 310 312 313 313 315 317 317 318 319 321 321 321 320 319 319 319 318 318 318 317 317 317 317 317 317 317 317 317 318 317 315 312 309 307 307 307 308
326 326 323 318 316 318 320 320 318 312 306 305 305 304 305 304 305 306 306 305 305 305 305 305 306 308 310 311 312 312 313 315 316 316 316 318 319 320 319 319 320 320 320 319 319 319 318 318 317 317 316 316 316 315 316 317 318 316 313 310 308 308 309
326 325 322 316 314 318 321 321 319 314 307 305 305 305 304 304 305 306 305 305 305 305 305 304 306 307 309 310 310 309 310 313 315 316 316 316 317 318 319 318 318 318 318 318 318 318 318 317 316 315 314 314 314 314 314 315 316 317 317 314 310 308 309
327 325 320 315 315 319 322 321 320 316 311 307 306 305 305 304 305 306 305 304 304 305 304 304 305 307 308 308 308 308 309 310 311 312 313 312 313 315 317 317 318 317 317 317 317 316 316 315 314 314 313 313 313 314 314 314 314 315 317 317 314 310 309
327 324 319 316 317 321 322 321 320 318 315 312 309 308 307 305 305 306 305 304 304 305 305 305 305 307 308 308 308 308 309 309 309 310 310 311 311 312 314 316 317 317 317 317 317 316 315 314 313 313 313 313 313 313 313 313 314 314 316 317 316 312 309
326 323 319 318 320 321 322 322 320 318 317 316 314 312 310 307 306 307 306 305 304 305 305 306 307 307 308 308 308 309 309 310 310 310 310 311 311 311 311 312 313 313 314 314 313 313 312 312 312 313 313 313 313 313 313 313 313 313 315 316 316 314 311
325 321 320 320 321 321 322 321 319 318 318 318 317 315 313 310 308 307 307 306 306 305 306 306 308 309 309 310 310 310 310 310 310 310 310 310 310 310 310 311 311 312 312 312 312 312 312 313 314 314 315 315 314 313 313 313 313 313 314 315 315 314 311
323 321 321 321 321 321 322 321 319 317 317 317 316 316 315 312 309 308 308 307 307 306 306 307 308 309 311 311 312 311 311 311 311 310 310 310 310 310 310 311 313 314 315 315 315 315 315 315 315 315 315 316 315 315 314 314 314 313 313 313 314 313 312
322 321 321 322 321 321 320 318 315 315 314 314 314 315 315 313 310 310 310 310 310 309 307 307 308 309 310 311 311 311 311 311 311 311 312 313 314 313 312 313 315 316 317 317 317 317 317 316 316 316 315 315 315 315 315 315 315 314 313 313 312 313 313
323 322 322 322 321 320 317 314 313 313 312 313 314 314 315 315 312 311 313 314 314 312 309 307 308 308 309 310 311 311 311 311 312 313 315 317 318 318 317 317 317 318 318 318 318 318 318 318 318 318 318 317 316 316 316 316 316 315 315 314 313 313 313
322 321 321 321 320 318 317 316 316 315 314 314 314 314 313 314 313 313 314 316 316 315 312 309 309 309 311 313 314 315 315 315 316 317 318 318 318 318 318 318 318 318 318 318 318 319 319 320 320 320 320 320 319 319 318 317 316 316 316 316 315 315 314
321 320 320 319 319 319 318 318 318 317 316 315 315 315 314 315 316 316 315 315 316 316 314 312 312 313 314 316 317 317 318 318 318 319 319 319 319 319 318 319 319 318 318 318 318 318 319 320 320 320 320 320 320 320 319 318 316 316 315 316 316 317 316
319 319 319 319 320 319 319 318 316 315 315 315 316 317 317 318 318 318 315 313 314 316 315 314 315 316 317 317 317 318 318 318 318 318 319 319 319 319 319 319 318 318 318 317 318 318 318 319 319 319 319 319 319 318 317 316 316 315 315 316 317 317 317
319 319 319 319 319 319 318 317 316 315 315 315 316 317 319 319 319 319 317 314 314 315 316 315 315 317 317 317 317 317 318 318 318 318 318 318 318 319 319 319 318 318 318 318 318 318 318 318 318 318 319 318 317 317 316 316 315 315 315 316 317 317 317
319 319 319 319 319 319 319 318 318 317 317 317 317 317 319 319 319 319 319 318 317 317 317 317 318 318 318 318 318 318 318 319 319 318 319 318 318 318 318 318 318 318 318 318 318 318 318 318 318 318 317 317 316 316 316 315 315 315 316 316 316 317 317
318 318 318 318 319 319 319 319 319 319 319 319 319 319 319 319 319 319 319 319 319 319 319 318 318 318 318 317 317 318 318 318 318 318 318 318 318 318 318 318 318 318 319 319 319 318 318 318 318 317 317 316 316 316 315 315 315 315 315 316 316 316 316
315 315 316 317 317 318 318 318 318 318 318 319 318 318 318 318 318 319 319 318 318 318 317 317 316 316 317 317 317 317 317 317 317 317 317 317 318 318 317 317 317 318 318 317 317 318 318 317 317 316 316 315 315 315 315 315 315 315 315 316 316 316 316
311 312 313 313 314 316 316 316 316 316 316 317 317 317 316 316 317 317 316 316 316 316 316 316 316 316 316 316 315 315 315 315 315 314 314 314 315 314 314 315 315 315 315 315 315 316 316 316 316 316 315 315 315 315 315 315 315 316 315 316 316 316 316
308 309 310 310 310 311 313 313 314 314 315 315 315 315 314 314 314 314 313 312 312 312 313 313 314 314 314 313 313 313 313 313 313 312 312 312 312 312 312 312 312 313 313 314 315 315 315 315 315 315 315 315 315 315 315 315 315 316 316 316 316 315 315
304 305 306 306 306 306 308 309 310 311 312 313 312 312 312 312 311 311 311 311 310 309 310 310 311 311 312 312 312 312 312 312 311 311 311 311 312 312 311 311 310 310 310 311 312 313 314 314 313 313 314 314 315 315 315 314 314 315 316 316 314 314 314
301 302 302 302 302 303 303 304 305 306 306 307 306 306 306 307 307 307 307 307 308 308 308 309 309 309 309 309 309 309 310 310 310 311 311 311 311 311 311 311 310 309 308 308 309 310 310 311 311 312 312 313 313 313 314 314 314 315 315 315 313 312 312
299 300 300 300 300 300 300 301 301 301 302 302 302 302 302 302 302 302 302 303 303 304 304 304 305 305 305 305 306 306 307 307 308 309 309 309 309 310 310 310 310 310 310 310 309 309 309 309 309 309 310 310 310 311 311 312 314 315 315 314 312 311 310
Wind_Speed
17 17 16 15 14 13 13 12 12 12 12 12 12 11 11 10 9 9 9 9 9 9 9 9 9 9 9 9 10 10 10 9 8 7 7 8 9 9 9 8 5 3 2 1 4 7 8 9 7 8 9 6 4 5 7 6 6 7 6 6 5 5 5
16 16 15 15 14 13 13 13 13 13 13 12 12 11 11 10 9 9 9 9 8 8 8 8 7 7 8 8 8 8 8 9 9 9 8 8 9 8 8 8 7 5 3 1 4 6 7 10 11 11 10 6 5 6 7 7 8 8 8 7 7 7 7
18 16 14 14 14 14 14 14 14 13 13 12 11 11 11 10 9 9 9 8 8 8 8 8 7 7 7 6 6 6 6 8 9 9 9 9 10 9 8 8 7 7 4 3 5 7 8 8 10 10 9 5 6 8 9 9 10 10 9 9 9 9 10
18 15 14 15 15 15 15 14 14 13 12 12 11 11 11 9 9 8 8 7 7 8 8 9 8 7 6 6 5 6 5 6 7 8 9 9 10 10 9 8 6 6 5 3 4 7 8 7 9 10 8 6 6 9 11 11 11 11 11 11 10 10 11
16 14 13 14 15 16 15 14 14 12 12 12 12 13 12 10 10 9 8 7 6 6 7 8 8 7 6 6 5 6 6 6 6 7 8 8 9 10 10 9 7 6 6 4 3 5 7 8 8 9 9 8 7 9 10 10 10 11 12 12 11 11 11
13 11 11 13 14 15 14 13 12 11 11 12 14 14 13 11 10 9 8 7 5 5 6 7 7 7 6 5 5 6 6 5 5 6 7 7 7 8 9 9 8 7 7 6 4 5 7 8 7 8 8 8 7 9 11 11 11 12 12 12 13 13 12
12 9 10 12 13 14 12 10 10 10 10 12 13 14 13 11 10 9 8 6 5 5 6 7 7 7 6 5 5 5 5 5 5 5 6 7 7 7 9 9 8 8 8 6 4 4 6 5 5 9 10 9 10 10 11 13 13 13 13 14 14 13 12
11 9 9 11 12 12 12 10 11 10 10 11 12 12 12 11 11 10 8 6 3 4 6 7 6 6 5 6 6 6 5 4 4 5 5 6 7 7 8 9 8 9 8 6 4 4 4 2 4 7 7 9 14 13 12 13 13 13 14 15 14 13 11
12 9 9 11 12 11 11 11 11 11 9 9 10 10 10 11 10 9 7 6 4 4 6 7 6 5 5 5 6 6 6 5 4 4 4 5 6 6 7 8 10 9 7 5 5 7 6 4 5 7 4 5 11 14 13 12 11 13 15 14 12 12 11
12 9 8 10 12 11 11 10 10 10 9 8 9 9 9 9 9 8 8 6 5 5 7 7 6 6 5 6 7 8 7 6 5 4 4 4 5 6 6 8 9 8 6 6 7 8 8 8 8 7 5 3 6 11 14 12 11 13 14 13 12 11 10
11 9 8 9 11 11 10 10 9 8 8 8 8 9 8 8 8 9 8 7 6 7 8 8 7 6 6 7 9 9 8 7 6 5 4 4 5 6 6 7 8 7 6 7 8 10 11 11 10 7 7 6 4 6 11 12 13 14 12 12 11 10 10
11 10 9 9 10 10 10 9 8 7 7 8 8 8 8 7 9 10 9 7 7 8 10 9 8 7 6 8 9 8 8 8 7 7 5 4 5 6 7 8 8 8 8 8 9 12 13 12 10 8 7 8 8 6 7 8 11 13 11 11 10 9 9
12 11 9 9 10 10 9 9 8 6 7 9 8 7 7 7 9 11 10 9 8 9 11 11 9 7 7 8 9 8 8 8 7 7 7 6 7 8 8 9 9 8 8 9 11 13 13 12 10 8 7 6 7 8 7 6 7 10 11 10 9 9 8
12 11 9 9 9 10 10 9 8 7 7 9 9 7 6 7 9 10 10 10 9 9 10 10 8 7 8 9 8 8 8 8 7 8 9 9 8 9 9 9 8 8 9 11 13 13 12 11 9 7 5 3 3 4 5 5 5 7 8 9 9 9 9
13 11 10 10 10 10 11 9 8 7 8 8 8 8 6 7 9 11 11 10 9 9 9 8 8 9 10 10 9 8 9 9 8 8 10 10 10 9 9 8 8 9 10 11 12 11 10 9 7 5 3 1 1 1 1 2 3 3 4 7 9 10 10
14 12 10 10 10 12 12 10 8 8 8 8 8 9 8 7 9 10 11 10 9 8 7 7 8 10 11 11 9 8 8 9 9 8 9 10 10 10 9 9 9 8 9 9 8 7 7 6 5 3 1 1 2 3 4 3 2 3 3 5 7 9 10
15 12 11 10 11 13 13 10 9 8 9 8 8 9 9 8 9 10 10 10 9 8 7 8 9 10 11 10 8 7 7 8 9 8 8 9 10 10 9 8 7 6 6 5 5 4 4 4 3 2 2 3 4 5 6 7 7 6 6 6 7 8 10
15 13 11 10 13 15 13 11 9 9 9 8 8 8 8 8 8 9 10 10 10 10 9 9 9 10 10 9 8 7 8 8 8 8 7 7 7 8 8 7 6 6 5 5 4 3 3 3 3 3 3 4 5 5 6 7 9 9 9 9 8 9 10
16 13 11 12 15 16 14 12 11 10 10 9 8 8 7 6 6 8 9 10 11 11 10 10 9 9 9 9 8 8 8 8 7 7 6 5 6 6 7 7 6 6 5 4 4 4 4 4 5 5 5 5 6 6 6 7 8 9 11 12 11 10 11
16 14 13 14 17 17 15 13 12 11 10 10 9 8 6 5 5 6 8 10 12 12 12 11 10 10 9 8 9 9 8 7 7 6 6 5 5 5 5 5 5 5 5 5 5 5 6 6 6 6 6 7 6 6 7 7 7 8 10 14 15 13 13
16 15 15 17 18 17 15 14 13 11 10 10 9 8 6 5 4 5 7 10 12 12 13 13 11 11 10 9 9 9 8 8 7 6 6 5 5 5 4 4 4 5 5 6 6 6 6 6 6 7 7 8 8 8 8 8 8 8 8 12 15 15 14
18 17 17 18 18 16 16 15 13 12 10 10 10 9 7 5 4 4 5 7 11 12 13 13 13 12 11 9 8 8 8 8 7 7 6 6 6 5 4 4 4 5 6 6 6 6 6 6 6 7 8 9 9 10 11 11 10 10 10 11 14 16 16
19 18 19 20 19 18 17 16 15 14 11 9 8 8 6 3 2 3 4 6 8 10 12 12 12 12 11 9 8 8 8 8 7 6 6 6 6 6 6 5 5 5 6 6 6 7 7 8 9 9 9 9 9 9 10 12 12 12 12 13 15 17 18
18 18 19 20 20 20 17 14 13 13 10 6 4 4 4 4 5 4 4 6 7 9 11 12 12 12 11 10 9 8 8 8 7 6 5 4 5 5 6 6 6 7 7 7 7 8 9 9 10 10 10 9 9 9 10 11 12 13 14 15 17 18 19
17 19 20 21 21 19 16 12 11 12 12 9 6 6 9 13 14 11 7 8 8 8 10 12 12 12 11 10 9 9 9 9 8 7 6 5 5 6 6 7 8 9 9 9 10 10 11 12 12 12 13 13 12 12 11 11 12 13 15 16 18 20 21
17 18 19 19 17 15 15 16 15 17 20 18 12 11 14 17 17 13 11 10 10 9 10 12 13 13 12 11 10 9 9 9 9 9 8 9 9 9 9 10 11 11 12 12 13 13 13 14 15 16 16 16 16 15 15 14 15 15 16 17 19 21 22
14 15 16 16 14 13 15 16 15 16 19 19 16 14 14 16 14 12 12 13 12 11 11 12 13 14 13 12 12 12 12 12 12 11 11 12 12 12 13 13 14 14 14 15 15 15 16 17 17 18 18 18 18 18 18 19 18 18 19 20 22 23 23
11 12 13 13 13 12 12 12 11 11 12 14 14 13 13 13 12 12 12 12 12 12 12 13 14 14 14 14 14 14 15 16 16 15 15 15 16 16 16 16 16 16 16 16 17 17 17 18 19 19 20 20 20 20 21 21 21 21 21 23 24 25 24
8 9 9 9 8 8 8 8 8 9 10 10 10 10 10 10 10 11 10 10 12 12 12 13 14 16 16 16 16 17 18 19 19 19 18 19 19 19 19 19 18 18 18 18 18 18 18 19 20 20 22 23 23 23 23 23 23 22 23 24 25 26 25
5 5 5 6 5 6 6 6 7 7 8 8 8 9 9 9 9 9 8 9 10 11 13 14 15 16 16 17 17 18 19 20 20 20 20 21 21 21 21 21 21 21 20 19 18 19 19 20 21 22 23 24 25 25 26 25 24 23 23 24 25 26 27
5 4 3 4 4 4 5 6 6 6 6 7 7 7 8 9 9 9 9 9 9 11 12 14 15 16 16 18 19 19 20 22 22 22 22 22 22 21 21 21 22 22 22 21 20 20 20 21 22 23 24 25 26 26 25 23 22 22 22 23 24 25 26
10 8 6 5 4 3 3 4 4 5 6 6 6 5 5 6 8 9 9 10 11 12 12 13 16 17 17 18 19 20 20 21 22 21 21 21 21 21 21 21 21 22 22 22 21 21 21 22 23 23 24 24 24 23 20 18 18 19 20 21 22 25 26
10 10 9 8 6 4 3 3 2 3 4 5 5 6 4 4 4 5 6 7 8 9 9 10 13 14 14 13 13 14 15 15 16 16 15 15 16 17 17 18 18 19 19 20 20 21 21 22 22 22 22 21 20 19 17 16 16 16 18 20 23 25 26
8 7 7 7 6 4 2 2 2 2 3 3 5 5 4 4 4 4 4 4 3 3 4 5 7 10 11 11 11 11 12 12 13 14 14 13 14 14 14 15 16 16 17 17 18 18 18 19 19 18 18 18 18 17 16 16 16 15 17 21 24 24 24
4 4 3 3 3 2 2 2 2 3 3 4 5 5 6 6 6 5 6 6 5 4 5 6 7 8 10 11 11 11 11 12 13 14 14 15 15 15 15 15 15 15 16 16 16 17 17 17 18 17 17 17 17 17 17 17 17 17 19 21 23 24 24
2 2 2 1 1 2 2 3 4 4 5 6 6 6 7 8 8 9 10 10 10 10 11 11 11 12 12 13 14 14 14 14 14 15 16 16 17 18 18 18 18 18 17 17 17 18 18 18 18 18 18 18 18 18 18 19 19 19 20 20 20 22 23
2 3 3 4 4 5 5 6 6 7 7 8 8 8 9 9 9 10 11 12 12 13 13 14 15 15 16 16 17 18 19 19 19 19 20 20 21 22 22 22 22 22 22 22 22 21 21 21 21 21 20 20 20 20 20 21 21 21 21 19 19 20 20
Wind_Direction
193 187 180 179 179 180 181 179 181 181 179 180 181 183 182 178 175 174 175 178 184 188 185 191 200 198 196 204 206 194 191 200 201 204 207 206 212 214 207 203 195 169 120 141 167 161 156 148 138 144 150 164 195 173 159 155 148 150 150 143 135 128 129
187 183 176 175 177 180 182 180 179 180 179 178 179 182 183 179 176 176 177 178 181 183 181 187 196 195 194 200 202 196 198 206 207 211 212 205 210 220 219 218 220 213 217 199 165 160 159 152 148 155 159 176 201 167 149 144 140 142 140 135 132 126 123
180 179 175 175 179 180 179 177 177 178 176 176 177 177 177 176 174 175 178 181 186 189 189 193 195 191 187 186 189 193 202 209 211 214 217 209 206 214 221 227 229 222 227 236 186 170 164 162 162 165 164 176 183 154 140 138 136 135 134 131 129 125 123
178 179 180 180 182 180 177 176 175 175 172 173 175 171 168 168 167 168 173 180 189 197 198 199 199 193 185 183 185 191 197 203 207 211 214 212 209 210 213 215 216 216 225 256 235 193 176 170 168 170 171 168 161 149 141 137 132 133 133 131 130 128 127
183 186 189 188 185 178 174 174 172 170 167 166 169 168 164 162 163 162 164 169 181 193 199 201 200 194 187 183 185 191 196 198 199 202 205 210 213 212 205 196 192 201 206 212 228 204 185 178 169 167 169 158 147 142 139 136 135 137 136 134 134 131 128
188 190 193 192 185 174 170 171 166 163 161 158 162 167 166 164 164 162 159 157 165 178 189 195 194 190 184 178 182 189 195 198 195 195 197 201 210 213 201 186 185 193 187 174 181 195 193 187 169 158 157 150 144 141 139 140 138 137 138 137 136 133 129
187 183 187 189 181 170 165 163 156 153 152 151 158 165 168 168 162 158 155 150 154 167 175 180 181 179 173 167 172 179 188 197 194 189 190 189 191 198 193 185 186 185 172 162 172 189 192 194 175 161 152 143 143 142 141 144 141 139 142 141 138 135 132
183 178 184 183 175 165 160 158 151 148 147 146 152 157 161 162 155 151 147 138 140 159 164 164 165 167 162 161 163 165 171 178 181 181 183 182 180 183 186 183 179 172 163 159 159 156 161 182 183 167 150 144 149 145 144 147 144 146 149 145 142 142 140
182 178 182 177 170 161 156 156 151 148 146 144 147 150 153 154 151 149 143 136 137 150 157 155 152 157 159 158 151 146 149 152 161 171 176 182 181 177 180 178 172 164 157 153 147 142 140 140 161 158 130 140 155 151 151 152 150 154 154 149 148 150 149
180 178 177 170 166 161 156 155 154 153 150 146 147 150 154 156 152 150 146 141 142 150 154 149 144 151 152 141 130 125 127 129 134 145 156 173 178 172 171 172 170 162 151 147 143 141 136 131 144 143 111 113 160 162 160 156 158 162 159 156 156 157 154
180 178 176 172 169 164 161 160 161 162 157 153 155 155 160 165 159 154 149 141 139 151 158 151 146 151 144 130 122 117 115 110 105 105 115 146 168 170 166 164 167 159 147 146 142 138 133 127 130 124 100 90 105 159 163 157 160 165 164 163 163 162 160
184 183 180 179 173 167 166 168 169 171 164 160 162 159 158 162 158 153 148 139 133 147 162 162 156 155 150 137 127 120 113 102 91 84 88 112 142 156 155 152 156 153 149 149 142 137 131 126 127 120 106 92 83 105 138 147 159 165 166 168 169 169 169
187 187 182 180 175 168 170 175 174 174 167 159 158 155 148 150 153 151 146 138 131 141 159 166 163 164 164 151 137 130 121 106 90 82 84 98 119 133 140 143 148 151 151 147 140 136 131 129 133 129 120 107 90 97 106 113 147 165 170 174 177 178 180
184 187 183 177 176 172 173 174 169 165 161 154 150 146 140 143 149 149 145 140 132 135 151 162 166 169 165 154 144 141 131 113 100 93 89 91 104 118 127 135 142 144 142 139 137 135 129 130 140 141 133 120 86 94 101 100 128 161 175 183 188 190 189
183 185 183 179 179 177 173 167 159 159 159 154 149 144 140 143 148 149 146 142 135 134 142 149 156 158 153 147 142 139 133 118 108 104 98 95 99 107 114 121 126 130 134 135 134 132 128 129 137 139 126 103 30 25 96 118 136 163 189 197 199 201 197
182 183 184 182 180 177 171 159 151 157 162 161 155 146 141 143 149 151 149 146 144 141 139 138 144 149 145 142 139 137 135 129 119 111 107 105 104 105 109 114 115 118 125 130 130 130 134 137 142 149 163 246 289 297 291 277 244 215 222 222 213 211 207
181 184 184 181 178 175 169 158 149 153 160 163 156 147 145 148 153 156 154 153 152 150 148 141 143 148 146 143 144 143 145 143 136 128 120 116 113 111 112 115 117 119 121 125 128 135 147 154 167 199 253 281 292 295 294 290 276 254 245 243 231 225 219
183 186 185 180 177 173 167 159 152 150 154 155 147 141 144 150 158 159 158 159 157 155 156 150 148 150 149 148 148 145 148 149 146 145 141 134 130 127 126 126 129 132 134 139 144 156 178 200 233 258 277 289 294 298 299 293 280 264 252 246 242 238 229
186 187 187 180 175 172 169 164 158 152 148 142 135 131 136 148 162 163 159 160 161 160 160 157 156 157 155 154 150 145 145 145 145 147 150 151 150 150 153 155 159 163 167 179 189 201 219 232 248 260 268 274 277 286 294 295 285 267 249 242 243 243 236
188 189 188 180 174 173 172 170 165 156 144 132 124 120 126 143 163 171 166 163 165 166 165 163 165 165 165 163 158 154 150 148 147 146 148 153 156 162 172 180 191 199 205 214 221 227 234 237 243 249 255 262 265 272 280 286 290 278 249 234 236 240 240
189 190 186 179 177 178 178 177 173 163 145 130 122 114 114 132 157 176 177 171 172 174 173 172 173 173 175 175 172 171 168 165 167 167 168 175 178 182 193 203 218 227 230 233 236 239 242 244 250 256 261 266 267 268 269 267 272 277 259 233 229 236 241
190 190 187 183 185 187 183 180 179 174 159 139 125 112 103 111 144 176 196 188 182 183 183 181 180 180 182 185 188 191 192 190 192 196 202 208 211 214 221 231 244 248 248 248 248 251 252 255 265 273 277 277 271 266 264 261 258 261 261 242 228 231 237
191 193 191 191 195 194 185 182 184 183 172 157 145 129 111 102 132 172 202 204 192 189 192 191 191 193 195 200 205 207 207 208 209 215 224 229 232 236 240 247 251 250 249 251 252 255 260 268 276 280 280 280 279 273 266 259 254 250 252 247 236 234 237
198 201 201 203 203 194 184 186 190 186 181 185 195 193 198 228 251 246 211 204 196 189 194 199 201 207 213 218 222 221 218 219 220 226 235 241 248 253 252 253 252 248 249 255 261 268 276 282 286 286 283 283 285 284 278 269 259 251 247 246 244 242 242
209 207 208 212 207 196 194 207 215 210 215 233 253 246 233 234 244 251 232 213 206 196 198 205 209 215 220 224 226 226 223 222 221 223 228 237 252 259 259 260 260 258 260 264 268 275 282 287 289 289 288 287 287 287 288 284 274 264 257 253 251 250 249
213 206 205 208 204 201 212 225 231 230 234 245 255 250 241 238 239 242 236 227 221 211 207 210 213 216 219 220 222 222 221 222 224 225 228 236 248 256 259 261 260 262 266 267 269 273 278 283 287 288 287 286 286 287 288 288 285 277 269 264 260 257 256
211 204 204 205 203 207 216 223 231 236 238 241 241 234 232 231 231 236 238 231 225 220 218 217 219 220 220 222 225 228 231 234 236 237 239 245 251 256 260 261 260 263 267 267 267 271 275 280 284 285 286 285 285 286 287 288 286 280 274 270 267 264 262
199 200 204 207 208 211 212 217 226 229 224 223 222 219 220 226 234 242 241 233 229 229 226 224 227 231 232 235 238 240 242 244 245 246 246 249 252 256 259 259 260 264 267 266 267 270 274 278 281 283 285 285 285 286 287 287 285 280 275 272 270 269 267
193 199 202 199 200 205 208 211 216 215 215 219 223 226 229 236 241 241 238 234 235 238 239 237 239 243 244 246 248 249 248 249 250 250 250 251 255 259 261 261 263 268 270 268 267 270 273 276 279 281 283 285 287 288 288 288 286 280 275 271 270 270 269
183 194 201 199 198 207 213 220 223 224 227 230 230 229 232 235 238 240 242 240 239 244 248 249 250 252 252 252 252 250 250 251 252 253 254 256 261 264 265 265 269 275 276 273 271 271 274 276 278 281 283 286 288 288 289 289 287 281 276 272 271 270 270
117 137 171 187 193 202 206 213 224 232 237 237 234 236 240 244 248 250 249 247 247 250 253 255 260 263 263 262 259 256 255 257 261 262 262 263 266 269 270 269 271 274 275 275 272 271 272 274 277 279 282 285 286 286 288 288 285 281 277 273 272 272 271
98 106 116 122 139 174 189 193 212 233 241 242 243 247 254 262 263 257 251 250 252 255 260 266 270 271 271 270 268 265 263 264 268 272 271 270 270 272 274 274 273 273 273 274 274 273 273 274 276 278 280 281 282 283 286 287 286 282 277 273 272 270 268
99 102 106 107 110 128 158 173 191 220 239 246 248 247 248 248 240 235 242 252 254 256 262 266 266 268 273 276 276 275 274 273 276 278 278 277 277 277 279 279 277 276 275 274 274 275 275 276 277 277 277 277 278 281 285 287 285 281 276 272 269 265 264
108 111 114 115 113 118 144 179 205 227 242 255 259 256 250 240 222 208 219 244 257 259 261 259 258 263 272 282 285 282 280 279 279 280 282 284 285 284 283 283 283 281 279 277 276 276 276 277 277 277 278 278 280 283 285 286 283 278 275 271 266 263 262
93 102 111 115 117 131 180 209 233 250 254 263 271 273 268 269 272 268 265 269 278 282 282 280 276 274 277 283 286 285 285 283 281 282 284 286 288 288 287 286 284 281 279 278 277 276 276 277 277 278 279 279 280 283 285 286 283 278 274 270 264 260 254
31 15 357 335 312 294 274 264 264 261 260 262 265 267 268 271 278 280 280 280 279 278 278 279 280 281 280 280 281 281 282 282 281 282 283 284 286 288 289 288 286 282 279 276 276 275 275 275 276 278 279 280 282 283 283 283 282 278 275 272 265 256 247
312 301 296 286 281 279 275 273 272 270 269 267 264 264 264 265 266 267 269 272 272 271 271 270 271 272 272 273 274 275 275 276 277 278 279 281 282 282 282 282 281 279 276 274 273 273 273 273 273 274 275 277 280 283 283 281 279 274 272 267 257 246 240